Vertical_Velocity
-2 -2 -1 -1 -2 -1 -1 -2 -2 -1 -0 -2 -1 -2 -3 -2 -2 -1 0 -2 -1 -4
-3 -2 -2 -1 -2 -2 -1 -1 -1 -1 -1 -1 -2 -1 -2 -1 -2 -2 -2 -2 -1 -3
-2 -1 -1 -1 -1 -1 -1 -1 -1 -0 -0 -0 0 -0 -1 -1 -1 -1 -0 -2 -3 -2
-0 -1 -1 -1 -1 -1 -2 -2 -2 -2 -2 -2 -2 -1 -0 -1 -1 -2 -1 -1 -1 0
1 1 -0 -1 -1 -2 -2 -1 -1 -0 -1 -1 -1 -2 -2 -2 -2 -2 -2 -2 -2 -1
0 -1 -1 -1 -1 -1 -1 -1 -2 -2 -1 -1 -1 -1 -1 -1 -0 0 -0 0 -0 -1
-2 -1 -1 -2 -2 -2 -2 -1 -0 -1 -2 -2 -1 -1 -0 -1 -2 -1 1 0 0 0
-2 -1 -0 -1 -1 -0 -1 -1 -1 -1 -0 -0 -1 -2 -2 -1 -0 -0 -2 -1 -1 -0
1 -0 -2 -2 -1 -2 0 1 1 -0 -1 -1 -0 -1 -1 -2 -2 -1 -0 -0 0 -2
3 1 1 1 -0 -2 -1 -1 -2 -1 -0 -1 -2 0 -3 -1 -1 -2 -0 -2 -4 -3
2 2 2 4 1 -4 -0 -1 0 0 -1 0 -0 -1 -2 -1 -2 -2 -2 -2 -3 -4
-3 -1 2 -1 3 1 1 -1 -1 1 -1 -2 -2 1 1 -1 -0 -2 -3 -0 -1 -3
6 1 -3 -0 3 -1 -1 -2 -3 -3 -0 -0 1 1 -0 0 2 -1 -2 -5 -3 -2
-1 4 1 -4 11 -3 5 -3 -2 0 -1 -1 -1 -1 -1 -2 2 1 -1 1 -2 -2
Height
3071 3069 3065 3062 3059 3055 3053 3050 3048 3045 3042 3040 3037 3034 3031 3028 3025 3024 3022 3020 3019 3018
3066 3064 3061 3058 3055 3052 3049 3046 3044 3041 3038 3036 3033 3029 3027 3024 3021 3018 3017 3015 3013 3010
3061 3059 3056 3054 3051 3048 3045 3042 3038 3036 3033 3030 3027 3024 3021 3018 3016 3013 3010 3008 3006 3004
3056 3054 3052 3049 3047 3044 3041 3038 3035 3032 3029 3025 3022 3019 3016 3013 3010 3007 3005 3002 2999 2997
3050 3049 3047 3044 3042 3039 3036 3033 3029 3026 3023 3020 3017 3014 3011 3008 3005 3002 2999 2996 2993 2990
3045 3043 3041 3039 3036 3034 3032 3029 3026 3023 3019 3015 3012 3009 3005 3002 2999 2996 2993 2990 2987 2984
3039 3037 3035 3033 3031 3029 3026 3024 3021 3017 3014 3010 3007 3004 3000 2997 2994 2991 2988 2984 2981 2978
3032 3031 3029 3027 3024 3022 3020 3018 3015 3012 3009 3006 3002 2998 2995 2992 2989 2986 2982 2979 2975 2972
3025 3024 3022 3021 3018 3016 3014 3011 3009 3006 3003 3001 2998 2994 2990 2987 2984 2981 2977 2974 2970 2967
3018 3017 3015 3013 3012 3010 3007 3005 3003 3001 2998 2995 2992 2989 2986 2982 2978 2975 2972 2969 2966 2962
3011 3009 3008 3007 3005 3003 3001 2999 2997 2995 2992 2989 2986 2984 2980 2977 2973 2970 2967 2964 2961 2957
3002 3001 3001 3000 2998 2996 2994 2992 2990 2988 2987 2983 2980 2978 2976 2970 2968 2965 2962 2959 2956 2952
2995 2992 2992 2992 2990 2989 2987 2985 2984 2982 2980 2977 2974 2971 2969 2966 2963 2960 2957 2953 2950 2947
2986 2985 2984 2983 2983 2982 2979 2978 2977 2975 2974 2972 2969 2966 2963 2961 2957 2954 2951 2947 2944 2941